Regional Weather Roundup
Issued by NWS

Home | Current Version | Previous Version | Text Only | Print | Product List | Glossary On
Versions: 1 2 3 4 5 6 7 8 9 10 11 12 13 14 15 16 17 18 19 20 21 22 23 24 25 26 27 28 29 30 31 32 33 34 35 36 37 38 39 40 41 42 43 44 45 46 47 48 49 50
000
ASUS43 KTOP 220508
RWRKS

WEATHER ROUNDUP FOR KANSAS
NATIONAL WEATHER SERVICE GOODLAND KS
1200 AM CDT SAT JUL 22 2017

NOTE:  "FAIR" INDICATES FEW OR NO CLOUDS BELOW 12,000 FEET WITH NO
SIGNIFICANT WEATHER AND/OR OBSTRUCTIONS TO VISIBILITY.

KSZ001>006-013>018-027>032-041>047-220600-
NORTHWEST KANSAS

CITY           SKY/WX    TMP DP  RH WIND       PRES   REMARKS
GOODLAND       PTCLDY    77  58  51 NW21G35   29.98R
HAYS           CLEAR     79  59  50 S8        29.86R
HILL CITY      CLEAR     83  57  41 SW7       29.85S
RUSSELL        CLEAR     86  59  39 S14       29.84R
$$

KSZ061>065-074>080-084>089-220600-
SOUTHWEST KANSAS

CITY           SKY/WX    TMP DP  RH WIND       PRES   REMARKS
DODGE CITY     CLEAR     79  55  43 S8        29.93R
ELKHART          N/A     76  45  33 S8          N/A
GARDEN CITY    CLEAR     77  58  51 S6        29.94R
LIBERAL        CLEAR     75  56  51 S7        29.96R
PRATT          CLEAR     81  57  42 S13       29.90R
$$

KSZ066>073-081>083-090>101-220600-
SOUTHEAST KANSAS

CITY           SKY/WX    TMP DP  RH WIND       PRES   REMARKS
CHANUTE        CLEAR     86  72  62 S13       29.90S
COFFEYVILLE    CLEAR     83  74  74 S8        29.91R
HUTCHINSON     CLEAR     87  62  43 S12       29.87R
MEDICINE LODGE   N/A     85  59  41 S7        29.88R
NEWTON         CLEAR     87  68  52 S14       29.88S
PARSONS        CLEAR     84  73  69 S8        29.92R
WICHITA INTL   CLEAR     88  69  53 S14       29.87R
WICHITA JABRA  CLEAR     86  69  56 S14       29.88R
WICHITA MCCONL CLEAR     87  68  53 S14       29.89R
WINFIELD       CLEAR     86  70  58 S17       29.90R
$$

KSZ007>012-019>026-033>040-048>060-102>105-220600-
NORTHEAST KANSAS

CITY           SKY/WX    TMP DP  RH WIND       PRES   REMARKS
CONCORDIA      CLEAR     87  62  43 S16       29.79R
EMPORIA        CLEAR     84  71  65 S17       29.86S
LAWRENCE       CLEAR     87  73  62 S12G21    29.83F
MANHATTAN      CLEAR     91  68  46 S15G24    29.80S HX  95
MARYSVILLE     CLEAR     88  68  51 S13G20    29.79R
OLATHE IND     CLEAR     84  71  65 S15       29.87R
OLATHE EXE     CLEAR     83  72  69 S14       29.86F
SALINA         PTCLDY    89  63  41 S14       29.82R
TOPEKA BILLARD CLEAR     88  74  63 S14       29.81F HX  96
TOPEKA FORBES  CLEAR     87  73  62 S14G23    29.83F
$$



USA.gov is the U.S. government's official web portal to all federal, state and local government web resources and services.